Regional Weather Roundup
Issued by NWS Grand Forks, ND

Home | Current Version | Previous Version | Text Only | Print | Product List | Glossary On
Versions: 1 2 3 4 5 6 7 8 9 10 11 12 13 14 15 16 17 18 19 20 21 22 23 24 25 26 27 28 29 30 31 32 33 34 35 36 37 38 39 40 41 42 43 44 45 46 47 48 49 50
000
ASUS43 KFGF 230931
RWRFGF
PRAIRIE TO PINES  WEATHER ROUNDUP
NATIONAL WEATHER SERVICE EASTERN NORTH DAKOTA/GRAND FORKS ND
400 AM CDT MON JUL 23 2018

 **SATELLITE DATA USED TO AUGMENT SKY COVER AT AUTOMATED STATIONS**
 *****  WEATHER ACROSS EASTERN NORTH DAKOTA  *****

CITY           SKY/WX    TMP DP  RH WIND       PRES   REMARKS
GRAND FORKS    FAIR      62  62 100 W6        30.03R
GRAND FRKS AFB FAIR      61  60  96 W7        30.04S
GRAND FRKS NWS   N/A     63  61  93 NW6       30.01R
DEVILS LAKE    FAIR      59  54  83 W7        30.09S
FARGO          FAIR      66  66 100 W5        30.04R FOG
WAHPETON ARPT  FAIR      68  64  88 SW8       30.04R
$$

 ***** WEATHER ACROSS CENTRAL AND WESTERN NORTH DAKOTA  *****

CITY           SKY/WX    TMP DP  RH WIND       PRES   REMARKS
BISMARCK       FAIR      57  52  83 SW5       30.17R
MINOT          FAIR      62  51  67 W12       30.14R
JAMESTOWN      FAIR      57  54  89 W5        30.10R
MINOT AFB      FAIR      54  51  90 W8        30.13R
GARRISON         N/A     58  53  84 NW12      30.16R
WILLISTON      FAIR      57  51  80 W8        30.21R
DICKINSON      FAIR      50  45  83 W5        30.22R
HETTINGER      FAIR      47  44  90 CALM      30.24S
$$

 *****  OTHER AIRPORT OBSERVATIONS IN OUR AREA  *****

CITY           SKY/WX    TMP DP  RH WIND       PRES   REMARKS
WALHALLA       FAIR      61  61 100 W7        30.02S
GRAFTON AIRPOR FAIR      61  59  94 W7        30.05R
VALLEY CITY AR FAIR      57  57 100 NW7       30.11R
CANDO          FAIR      54  54 100 W7        30.10S
CAVALIER APRT  FAIR      57 N/A N/A W8        30.03R
GWINNER        SUNNY     66  64  94 CALM      30.08S
SHEYENNE NWR     N/A     68  68 100 NW5       29.95S
ROLLA          FAIR      57  54  88 W9        30.09R
 ***** THE ABOVE OBSERVATIONS ARE NON NWS ARE NOT QUALITY
       CONTROLLED AND MAY MIS-REPORT RAIN FOR SNOW...
$$

  *****  WEATHER ACROSS NORTHERN MINNESOTA  *****

CITY           SKY/WX    TMP DP  RH WIND       PRES   REMARKS
FLAG ISLAND    CLOUDY    66  64  94 CALM      29.98F
WARROAD        CLOUDY    66  63  88 SW5       30.01F
ROSEAU         CLOUDY    66  63  88 CALM      30.01S
HALLOCK        FAIR      61  57  88 CALM      30.02R
THF RVR FALLS  CLOUDY    67  66  97 W6        30.04S
BAUDETTE       CLOUDY    67  65  93 S7        30.01S
WASKISH        CLOUDY    66  63  88 S5        30.04R
CROOKSTON      FAIR      64  64 100 W5        30.04S FOG
$$
  *****  WEATHER ACROSS CENTRAL AND WEST MINNESOTA  *****

CITY           SKY/WX    TMP DP  RH WIND       PRES   REMARKS
FOSSTON        FAIR      64  64 100 SW5       30.05S
BEMIDJI        DRIZZLE   65  63  91 S3        30.05S
PARK RAPIDS    LGT RAIN  65  64  97 SE5       30.06F FOG
ELBOW LAKE     NOT AVBL
WADENA         CLOUDY    64  64 100 CALM      30.05S
DETROIT LAKES  CLOUDY    68  64  88 W6        30.06S
MOORHEAD       FAIR      66  64  94 CALM      30.05S FOG
FERGUS FALLS   CLOUDY    70  70 100 SW3       30.05S
MORRIS MN      CLOUDY    70  70 100 S3        30.04S
STAPLES        CLOUDY    64  63  94 CALM      30.06S
$$
  *****  WEATHER ELSEWHERE ACROSS MINNESOTA  *****

CITY           SKY/WX    TMP DP  RH WIND       PRES   REMARKS
DULUTH         FAIR      53  49  86 NW3       30.07R
INTRNTL FALLS  CLOUDY    62  62 100 CALM      30.05S
ELY            FAIR      54  54 100 CALM      30.08F
CLOQUET        FAIR      52  48  87 CALM      30.07F
WHEATON        CLOUDY    70  64  83 S3        30.06R
BRAINERD       FAIR      62  59  90 CALM      30.07F
HIBBING        FAIR      52  52 100 CALM      30.08F FOG
ALEXANDRIA     CLOUDY    70  65  84 S5        30.07S
SAINT CLOUD    FAIR      63  61  93 CALM      30.05F
MINNEAPOLIS    FAIR      67  63  87 N3        30.04F
$$

  *****  WEATHER ACROSS SOUTH DAKOTA  *****

CITY           SKY/WX    TMP DP  RH WIND       PRES   REMARKS
SIOUX FALLS    TSTM      70  69  97 SE3       30.10R FOG
BROOKINGS      LGT RAIN  69  66  90 SE8       30.09S
WATERTOWN      CLOUDY    70  68  93 S5        30.07S
HURON          FAIR      69  67  93 N5        30.09R
SISSETON         N/A     70  67  90 CALM      30.04S
ABERDEEN       FAIR      66  59  78 N10       30.09R
MITCHELL       CLOUDY    73  68  84 NW6       30.08R
PIERRE           N/A     67  60  78 N10       30.14R
MOBRIDGE       FAIR      59  55  87 NW6       30.15R
RAPID CITY     FAIR      59  45  59 CALM      30.28S
$$

  *****  SOME WEATHER IN NEARBY STATES *****

CITY           SKY/WX    TMP DP  RH WIND       PRES   REMARKS
GLASGOW MT     FAIR      57  47  69 SW3       30.24S
GREAT FALLS MT FAIR      60  42  51 E9        30.28F
CHEYENNE WY    FAIR      61  58  90 W8        30.41S
SCOTTSBLUFF NE MOCLDY    68  64  87 N7        30.28S
OMAHA NE       CLOUDY    73  64  73 CALM      30.06R
DES MOINES IA  FAIR      65  64  97 NW7       30.03R
DAVENPORT IA   FAIR      63  61  93 N5        30.00R FOG
CHICAGO IL     MOCLDY    67  61  81 NW9       29.90F
EAU CLAIRE WI  FAIR      58  56  93 NW5       30.03R
LA CROSSE WI   FAIR      67  64  90 N3        29.99S
$$

  *****  SOME NATIONAL WEATHER *****

CITY           SKY/WX    TMP DP  RH WIND       PRES   REMARKS
LA GUARDIA NY  CLOUDY    78  73  84 SE14G25   30.02R
RALEIGH NC     FAIR      71  69  93 NE3       29.78F
ATLANTA GA     FAIR      68  65  90 S3        29.80S
NEW ORLEANS LA CLOUDY    83  81  94 W3        29.82F HX  97
OKLAHOMA CITY  MOCLDY    76  62  62 E12       29.94R
ALBUQUERQUE NM FAIR      82  45  27 E13G22    30.15R
SALT LAKE CITY FAIR      68  54  60 CALM      30.19S
LOS ANGELES CA FAIR      70  64  81 S5        29.96F
BOISE ID       FAIR      70  25  18 SE9       30.12R
SEATTLE WA     FAIR      70  52  52 NE9       30.12S
$$

*** WEATHER ACROSS MANITOBA...SASKATCHEWAN AND ONTARIO ***
                ***ONTARIO***

CITY           SKY/WX    TMP DP  RH WIND       PRES   REMARKS
GERALDTON      PTCLDY    54  50  87 N2        30.08F
THUNDER BAY    PTCLDY    54  54 100 SW6       30.06R
SIOUX LOOKOUT  MOCLDY    64  59  82 SE5       30.03S
TORONTO        MOCLDY    70  66  88 E6        29.88S
BIG TROUT LK   MOCLDY    63  54  72 SE12G21   29.99F
PICKLE LAKE    NOT AVBL
DRYDEN         CLOUDY    66  61  82 S8        30.01F
KENORA         TSTM      70  64  83 SW9       29.99S
$$
                *** MANITOBA***

CITY           SKY/WX    TMP DP  RH WIND       PRES   REMARKS
BRANDON        CLEAR     55  54  94 W10       30.03S
DAUPHIN        CLEAR     61 N/A N/A W9        29.95S
ISLAND LAKE    NOT AVBL
PILOT MOUND      N/A     57  52  82 W7          N/A
THE PAS        LGT RAIN  61  59  94 SW16G25   29.74S
THOMPSON       PTCLDY    57  57 100 VRB2      29.73S
WINNIPEG       CLEAR     59  55  88 W10       29.98R
CHURCHILL      MOCLDY    57  50  77 SE9       29.98S
GILLAM         LGT RAIN  59  57  94 E7        29.84F
$$
                ***SASKATCHEWAN***

CITY           SKY/WX    TMP DP  RH WIND       PRES   REMARKS
ESTEVAN        CLEAR     54  50  87 W9        30.15R
KINDERSLEY     PTCLDY    50  46  87 NW7       30.23R
LLOYDMINSTER   CLEAR     50  46  87 NW10G18   30.20R
PRINCE ALBERT  MOCLDY    59  52  77 NW13G22   30.02R
REGINA         CLEAR     52  48  87 W14       30.13S
YORKTON        NOT AVBL
N. BATTLEFORD  CLEAR     52  48  87 W12G17    30.16S
LA RONGE       MOCLDY    59  54  82 NW16G25   29.91R
SASKATOON      PTCLDY    55  50  82 W14G21    30.11S
SWIFT CURRENT  CLEAR     46  43  87 W9        30.23R
$$
NOTE: THESE ARE AUTOMATED STATIONS WITH LIMITED QUALITY CONTROL
      "FAIR" INDICATES FEW OR NO CLOUDS BELOW 12,000 FEET WITH NO
      SIGNIFICANT WEATHER AND/OR OBSTRUCTIONS TO VISIBILITY.
      SKY/WX - SKY CONDITION AND SIGNIFICANT WEATHER.
      TMP - AIR TEMPERATURE.    DP   - DEWPOINT TEMPERATURE.
      RH  - RELATIVE HUMIDITY.  PRES - PRESSURE.
      HX  - HEAT INDEX.         WCI  - WIND CHILL INDEX.
$



USA.gov is the U.S. government's official web portal to all federal, state and local government web resources and services.